Time,TemperatureF,DewpointF,PressureIn,WindDirection,WindDirectionDegrees,WindSpeedMPH,WindSpeedGustMPH,Humidity,HourlyPrecipIn,Conditions,Clouds,dailyrainin,SoftwareType,DateUTC
2013-03-15 00:00:00,30.0,9.0,30.00,WSW,248,7.0,18.0,40,-99.99,,,-99.99,,2013-03-15 04:00:00,
2013-03-15 00:23:00,30.0,9.0,30.00,WSW,248,7.0,18.0,40,-99.99,,,-99.99,,2013-03-15 04:23:00,
2013-03-15 00:33:00,30.0,9.0,30.00,WSW,248,7.0,18.0,40,-99.99,,,-99.99,,2013-03-15 04:33:00,
2013-03-15 00:43:00,30.0,9.0,30.00,WSW,248,7.0,18.0,40,-99.99,,,-99.99,,2013-03-15 04:43:00,
2013-03-15 00:53:00,30.0,9.0,30.00,WSW,248,7.0,18.0,40,-99.99,,,-99.99,,2013-03-15 04:53:00,
2013-03-15 01:00:00,30.0,10.0,30.00,SSW,194,9.0,22.0,43,-99.99,,,-99.99,,2013-03-15 05:00:00,
2013-03-15 01:23:00,30.0,10.0,30.00,SSW,194,9.0,22.0,43,-99.99,,,-99.99,,2013-03-15 05:23:00,
2013-03-15 01:32:00,30.0,10.0,30.00,SSW,194,9.0,22.0,43,-99.99,,,-99.99,,2013-03-15 05:32:00,
2013-03-15 01:42:00,30.0,10.0,30.00,SSW,194,9.0,22.0,43,-99.99,,,-99.99,,2013-03-15 05:42:00,
2013-03-15 01:52:00,30.0,10.0,30.00,SSW,194,9.0,22.0,43,-99.99,,,-99.99,,2013-03-15 05:52:00,
2013-03-15 02:00:00,29.0,10.0,30.00,SSE,149,4.0,12.0,45,-99.99,,,-99.99,,2013-03-15 06:00:00,
2013-03-15 02:22:00,29.0,10.0,30.00,SSE,149,4.0,12.0,45,-99.99,,,-99.99,,2013-03-15 06:22:00,
2013-03-15 02:33:00,29.0,10.0,30.00,SSE,149,4.0,12.0,45,-99.99,,,-99.99,,2013-03-15 06:33:00,
2013-03-15 02:43:00,29.0,10.0,30.00,SSE,149,4.0,12.0,45,-99.99,,,-99.99,,2013-03-15 06:43:00,
2013-03-15 02:53:00,29.0,10.0,30.00,SSE,149,4.0,12.0,45,-99.99,,,-99.99,,2013-03-15 06:53:00,
2013-03-15 03:00:00,28.0,11.0,30.00,WSW,242,9.0,13.0,48,-99.99,,,-99.99,,2013-03-15 07:00:00,
2013-03-15 03:22:00,28.0,11.0,30.00,WSW,242,9.0,13.0,48,-99.99,,,-99.99,,2013-03-15 07:22:00,
2013-03-15 03:32:00,28.0,11.0,30.00,WSW,242,9.0,13.0,48,-99.99,,,-99.99,,2013-03-15 07:32:00,
2013-03-15 03:42:00,28.0,11.0,30.00,WSW,242,9.0,13.0,48,-99.99,,,-99.99,,2013-03-15 07:42:00,
2013-03-15 03:52:00,28.0,11.0,30.00,WSW,242,9.0,13.0,48,-99.99,,,-99.99,,2013-03-15 07:52:00,
2013-03-15 04:00:00,28.0,11.0,30.00,SW,225,5.0,11.0,51,-99.99,,,-99.99,,2013-03-15 08:00:00,
2013-03-15 04:23:00,28.0,11.0,30.00,SW,225,5.0,11.0,51,-99.99,,,-99.99,,2013-03-15 08:23:00,
2013-03-15 04:33:00,28.0,11.0,30.00,SW,225,5.0,11.0,51,-99.99,,,-99.99,,2013-03-15 08:33:00,
2013-03-15 04:42:00,28.0,11.0,30.00,SW,225,5.0,11.0,51,-99.99,,,-99.99,,2013-03-15 08:42:00,
2013-03-15 04:52:00,28.0,11.0,30.00,SW,225,5.0,11.0,51,-99.99,,,-99.99,,2013-03-15 08:52:00,
2013-03-15 05:00:00,26.0,12.0,30.00,SW,216,5.0,9.0,57,-99.99,,,-99.99,,2013-03-15 09:00:00,
2013-03-15 05:22:00,26.0,12.0,30.00,SW,216,5.0,9.0,57,-99.99,,,-99.99,,2013-03-15 09:22:00,
2013-03-15 05:33:00,26.0,12.0,30.00,SW,216,5.0,9.0,57,-99.99,,,-99.99,,2013-03-15 09:33:00,
2013-03-15 05:43:00,26.0,12.0,30.00,SW,216,5.0,9.0,57,-99.99,,,-99.99,,2013-03-15 09:43:00,
2013-03-15 05:53:00,26.0,12.0,30.00,SW,216,5.0,9.0,57,-99.99,,,-99.99,,2013-03-15 09:53:00,
2013-03-15 06:00:00,27.0,12.0,30.00,SW,214,2.0,10.0,55,-99.99,,,-99.99,,2013-03-15 10:00:00,
2013-03-15 06:23:00,27.0,12.0,30.00,SW,214,2.0,10.0,55,-99.99,,,-99.99,,2013-03-15 10:23:00,
2013-03-15 06:33:00,27.0,12.0,30.00,SW,214,2.0,10.0,55,-99.99,,,-99.99,,2013-03-15 10:33:00,
2013-03-15 06:43:00,27.0,12.0,30.00,SW,214,2.0,10.0,55,-99.99,,,-99.99,,2013-03-15 10:43:00,
2013-03-15 06:52:00,27.0,12.0,30.00,SW,214,2.0,10.0,55,-99.99,,,-99.99,,2013-03-15 10:52:00,
2013-03-15 07:00:00,23.0,13.0,30.00,SW,233,3.0,7.0,68,-99.99,,,-99.99,,2013-03-15 11:00:00,
2013-03-15 07:23:00,23.0,13.0,30.00,SW,233,3.0,7.0,68,-99.99,,,-99.99,,2013-03-15 11:23:00,
2013-03-15 07:32:00,23.0,13.0,30.00,SW,233,3.0,7.0,68,-99.99,,,-99.99,,2013-03-15 11:32:00,
2013-03-15 07:42:00,23.0,13.0,30.00,SW,233,3.0,7.0,68,-99.99,,,-99.99,,2013-03-15 11:42:00,
2013-03-15 07:52:00,23.0,13.0,30.00,SW,233,3.0,7.0,68,-99.99,,,-99.99,,2013-03-15 11:52:00,
2013-03-15 08:00:00,27.0,14.0,30.00,SW,218,3.0,7.0,60,-99.99,,,-99.99,,2013-03-15 12:00:00,
2013-03-15 08:23:00,27.0,14.0,30.00,SW,218,3.0,7.0,60,-99.99,,,-99.99,,2013-03-15 12:23:00,
2013-03-15 08:32:00,27.0,14.0,30.00,SW,218,3.0,7.0,60,-99.99,,,-99.99,,2013-03-15 12:32:00,
2013-03-15 08:42:00,27.0,14.0,30.00,SW,218,3.0,7.0,60,-99.99,,,-99.99,,2013-03-15 12:42:00,
2013-03-15 08:52:00,27.0,14.0,30.00,SW,218,3.0,7.0,60,-99.99,,,-99.99,,2013-03-15 12:52:00,
2013-03-15 09:00:00,28.0,12.0,30.00,WSW,237,6.0,11.0,52,-99.99,,,-99.99,,2013-03-15 13:00:00,
2013-03-15 09:32:00,28.0,12.0,30.00,WSW,237,6.0,11.0,52,-99.99,,,-99.99,,2013-03-15 13:32:00,
2013-03-15 09:42:00,28.0,12.0,30.00,WSW,237,6.0,11.0,52,-99.99,,,-99.99,,2013-03-15 13:42:00,
2013-03-15 09:53:00,28.0,12.0,30.00,WSW,237,6.0,11.0,52,-99.99,,,-99.99,,2013-03-15 13:53:00,
2013-03-15 10:00:00,33.0,15.0,29.97,SW,231,10.0,14.0,48,-99.99,,,-99.99,,2013-03-15 14:00:00,
2013-03-15 10:33:00,33.0,15.0,29.97,SW,231,10.0,14.0,48,-99.99,,,-99.99,,2013-03-15 14:33:00,
2013-03-15 10:42:00,33.0,15.0,29.97,SW,231,10.0,14.0,48,-99.99,,,-99.99,,2013-03-15 14:42:00,
2013-03-15 10:53:00,33.0,15.0,29.97,SW,231,10.0,14.0,48,-99.99,,,-99.99,,2013-03-15 14:53:00,
2013-03-15 11:00:00,34.0,17.0,29.94,WSW,248,7.0,16.0,50,-99.99,,,-99.99,,2013-03-15 15:00:00,
2013-03-15 11:23:00,34.0,17.0,29.94,WSW,248,7.0,16.0,50,-99.99,,,-99.99,,2013-03-15 15:23:00,
2013-03-15 11:33:00,34.0,17.0,29.94,WSW,248,7.0,16.0,50,-99.99,,,-99.99,,2013-03-15 15:33:00,
2013-03-15 11:43:00,34.0,17.0,29.94,WSW,248,7.0,16.0,50,-99.99,,,-99.99,,2013-03-15 15:43:00,
2013-03-15 11:53:00,34.0,17.0,29.94,WSW,248,7.0,16.0,50,-99.99,,,-99.99,,2013-03-15 15:53:00,
2013-03-15 13:00:00,38.0,20.0,29.85,West,269,5.0,20.0,47,-99.99,,,-99.99,,2013-03-15 17:00:00,
2013-03-15 13:33:00,38.0,20.0,29.85,West,269,5.0,20.0,47,-99.99,,,-99.99,,2013-03-15 17:33:00,
2013-03-15 13:43:00,38.0,20.0,29.85,West,269,5.0,20.0,47,-99.99,,,-99.99,,2013-03-15 17:43:00,
2013-03-15 13:53:00,38.0,20.0,29.85,West,269,5.0,20.0,47,-99.99,,,-99.99,,2013-03-15 17:53:00,
2013-03-15 14:00:00,39.0,20.0,29.83,West,264,8.0,20.0,46,-99.99,,,-99.99,,2013-03-15 18:00:00,
2013-03-15 14:22:00,39.0,20.0,29.83,West,264,8.0,20.0,46,-99.99,,,-99.99,,2013-03-15 18:22:00,
2013-03-15 14:32:00,39.0,20.0,29.83,West,264,8.0,20.0,46,-99.99,,,-99.99,,2013-03-15 18:32:00,
2013-03-15 14:42:00,39.0,20.0,29.83,West,264,8.0,20.0,46,-99.99,,,-99.99,,2013-03-15 18:42:00,
2013-03-15 14:53:00,39.0,20.0,29.83,West,264,8.0,20.0,46,-99.99,,,-99.99,,2013-03-15 18:53:00,
2013-03-15 15:00:00,40.0,21.0,29.80,WSW,256,9.0,22.0,46,-99.99,,,-99.99,,2013-03-15 19:00:00,
2013-03-15 15:23:00,40.0,21.0,29.80,WSW,256,9.0,22.0,46,-99.99,,,-99.99,,2013-03-15 19:23:00,
2013-03-15 15:32:00,40.0,21.0,29.80,WSW,256,9.0,22.0,46,-99.99,,,-99.99,,2013-03-15 19:32:00,
2013-03-15 15:42:00,40.0,21.0,29.80,WSW,256,9.0,22.0,46,-99.99,,,-99.99,,2013-03-15 19:42:00,
2013-03-15 15:53:00,40.0,21.0,29.80,WSW,256,9.0,22.0,46,-99.99,,,-99.99,,2013-03-15 19:53:00,
2013-03-15 16:00:00,42.0,22.0,29.77,SSW,197,10.0,24.0,46,-99.99,,,-99.99,,2013-03-15 20:00:00,
2013-03-15 16:22:00,42.0,22.0,29.77,SSW,197,10.0,24.0,46,-99.99,,,-99.99,,2013-03-15 20:22:00,
2013-03-15 16:32:00,42.0,22.0,29.77,SSW,197,10.0,24.0,46,-99.99,,,-99.99,,2013-03-15 20:32:00,
2013-03-15 16:42:00,42.0,22.0,29.77,SSW,197,10.0,24.0,46,-99.99,,,-99.99,,2013-03-15 20:42:00,
2013-03-15 16:52:00,42.0,22.0,29.77,SSW,197,10.0,24.0,46,-99.99,,,-99.99,,2013-03-15 20:52:00,
2013-03-15 17:00:00,43.0,24.0,29.74,SW,221,4.0,24.0,47,-99.99,,,-99.99,,2013-03-15 21:00:00,
2013-03-15 17:33:00,43.0,24.0,29.74,SW,221,4.0,24.0,47,-99.99,,,-99.99,,2013-03-15 21:33:00,
2013-03-15 17:43:00,43.0,24.0,29.74,SW,221,4.0,24.0,47,-99.99,,,-99.99,,2013-03-15 21:43:00,
2013-03-15 17:53:00,43.0,24.0,29.74,SW,221,4.0,24.0,47,-99.99,,,-99.99,,2013-03-15 21:53:00,
2013-03-15 18:00:00,44.0,23.0,29.74,SW,228,8.0,14.0,44,-99.99,,,-99.99,,2013-03-15 22:00:00,
2013-03-15 18:22:00,44.0,23.0,29.74,SW,228,8.0,14.0,44,-99.99,,,-99.99,,2013-03-15 22:22:00,
2013-03-15 18:33:00,44.0,23.0,29.74,SW,228,8.0,14.0,44,-99.99,,,-99.99,,2013-03-15 22:33:00,
2013-03-15 18:42:00,44.0,23.0,29.74,SW,228,8.0,14.0,44,-99.99,,,-99.99,,2013-03-15 22:42:00,
2013-03-15 18:53:00,44.0,23.0,29.74,SW,228,8.0,14.0,44,-99.99,,,-99.99,,2013-03-15 22:53:00,
2013-03-15 19:00:00,44.0,24.0,29.74,South,189,3.0,14.0,46,-99.99,,,-99.99,,2013-03-15 23:00:00,
2013-03-15 19:32:00,44.0,24.0,29.74,South,189,3.0,14.0,46,-99.99,,,-99.99,,2013-03-15 23:32:00,
2013-03-15 19:42:00,44.0,24.0,29.74,South,189,3.0,14.0,46,-99.99,,,-99.99,,2013-03-15 23:42:00,
2013-03-15 19:53:00,44.0,24.0,29.74,South,189,3.0,14.0,46,-99.99,,,-99.99,,2013-03-15 23:53:00,
2013-03-15 20:00:00,44.0,26.0,29.77,South,171,0.0,10.0,48,-99.99,,,-99.99,,2013-03-16 00:00:00,
2013-03-15 20:22:00,44.0,26.0,29.77,South,171,0.0,10.0,48,-99.99,,,-99.99,,2013-03-16 00:22:00,
2013-03-15 20:32:00,44.0,26.0,29.77,South,171,0.0,10.0,48,-99.99,,,-99.99,,2013-03-16 00:32:00,
2013-03-15 20:42:00,44.0,26.0,29.77,South,171,0.0,10.0,48,-99.99,,,-99.99,,2013-03-16 00:42:00,
2013-03-15 20:52:00,44.0,26.0,29.77,South,171,0.0,10.0,48,-99.99,,,-99.99,,2013-03-16 00:52:00,
2013-03-15 21:00:00,44.0,27.0,29.77,South,191,5.0,10.0,52,-99.99,,,-99.99,,2013-03-16 01:00:00,
2013-03-15 21:22:00,44.0,27.0,29.77,South,191,5.0,10.0,52,-99.99,,,-99.99,,2013-03-16 01:22:00,
2013-03-15 21:32:00,44.0,27.0,29.77,South,191,5.0,10.0,52,-99.99,,,-99.99,,2013-03-16 01:32:00,
2013-03-15 21:42:00,44.0,27.0,29.77,South,191,5.0,10.0,52,-99.99,,,-99.99,,2013-03-16 01:42:00,
2013-03-15 21:53:00,44.0,27.0,29.77,South,191,5.0,10.0,52,-99.99,,,-99.99,,2013-03-16 01:53:00,
2013-03-15 22:00:00,43.0,28.0,29.80,South,170,1.0,11.0,54,-99.99,,,-99.99,,2013-03-16 02:00:00,
2013-03-15 22:23:00,43.0,28.0,29.80,South,170,1.0,11.0,54,-99.99,,,-99.99,,2013-03-16 02:23:00,
2013-03-15 22:33:00,43.0,28.0,29.80,South,170,1.0,11.0,54,-99.99,,,-99.99,,2013-03-16 02:33:00,
2013-03-15 22:43:00,43.0,28.0,29.80,South,170,1.0,11.0,54,-99.99,,,-99.99,,2013-03-16 02:43:00,
2013-03-15 22:52:00,43.0,28.0,29.80,South,170,1.0,11.0,54,-99.99,,,-99.99,,2013-03-16 02:52:00,
2013-03-15 23:00:00,42.0,28.0,29.80,ESE,110,5.0,10.0,58,-99.99,,,-99.99,,2013-03-16 03:00:00,
2013-03-15 23:22:00,42.0,28.0,29.80,ESE,110,5.0,10.0,58,-99.99,,,-99.99,,2013-03-16 03:22:00,
2013-03-15 23:33:00,42.0,28.0,29.80,ESE,110,5.0,10.0,58,-99.99,,,-99.99,,2013-03-16 03:33:00,
2013-03-15 23:43:00,42.0,28.0,29.80,ESE,110,5.0,10.0,58,-99.99,,,-99.99,,2013-03-16 03:43:00,
2013-03-15 23:53:00,42.0,28.0,29.80,ESE,110,5.0,10.0,58,-99.99,,,-99.99,,2013-03-16 03:53:00,